Location: Central Falls
(41.8900°N, 71.3929°W)
Time: 04:52:04
(UTC+00:00)

Vanguard 3 - Pass Details

Date: 11 December 2023
Orbit: 508 x 3239 km, 33.4° (Epoch: 01 March)

Event Time Altitude Azimuth Distance (km) Brightness Sun altitude
Rises 01:20:22 0° 244° (WSW) 7,010 12.5 -44.9°
Reaches altitude 10° 01:25:37 10° 240° (WSW) 5,755 11.8 -45.8°
Enters shadow 01:37:48 45° 208° (SSW) 2,921 9.8 -48.0°
